User: anonymous   Login
Location: Unspecified
(0.0000°N, 0.0000°E)
Time: 20:25:38
(UTC+00:00)
Language:

STARLINK-35464 - Orbit

View from above orbital plane
View from above orbital plane
View from above satellite
View from above satellite

Ground track
Ground track

The orbit is defined by the following mean orbital elements,

1 65881U          26145.45254924 +.00000000 +00000-0 +85245-3 0 00001
2 65881  53.1584 297.2390 0001963  81.3691 278.7533 15.34418704    07
Epoch (UTC): 25 May 2026 10:51:40
Eccentricity: 0.0001963
inclination: 53.1584°
perigee height: 461 km
apogee height: 464 km
right ascension of ascending node: 297.2390°
argument of perigee: 81.3691°
revolutions per day: 15.34418704
mean anomaly at epoch: 278.7533°

The dashed part of the orbit path shows where the satellite is in the earth's shadow,  

DLR